This is the latest recevied weather packets stored in our database for station/object F4AMY-13. If no packets are shown the sender has not sent any weather packets the latest 10 day(s).
| Time | Temp. | Humidity | Pressure | Rain* | Wind** | Luminosity | Snow |
|---|---|---|---|---|---|---|---|
| 1777756964 | 15° C | 63% | 1019.2 hPa | 0 mm | 0 m/s | 0 W/m² | - |
| 1777756664 | 15° C | 61% | 1019.1 hPa | 0 mm | 0 m/s | 0 W/m² | - |
| 1777756364 | 15° C | 59% | 1019.3 hPa | 0 mm | 0 m/s | 0 W/m² | - |
| 1777756064 | 15° C | 57% | 1019.3 hPa | 0 mm | 0 m/s | 0 W/m² | - |
| 1777755764 | 15° C | 59% | 1018.9 hPa | 0 mm | 0 m/s | 0 W/m² | - |
| 1777755464 | 15° C | 59% | 1018.8 hPa | 0 mm | 0 m/s | 0 W/m² | - |
| 1777755164 | 15° C | 58% | 1019.1 hPa | 0 mm | 0 m/s | 0 W/m² | - |
| 1777754864 | 15° C | 58% | 1019 hPa | 0 mm | 0 m/s | 0 W/m² | - |
| 1777754564 | 15° C | 55% | 1019.3 hPa | 0 mm | 0 m/s | 0 W/m² | - |
| 1777754264 | 15° C | 54% | 1019.2 hPa | 0 mm | 0 m/s | 0 W/m² | - |
| 1777753964 | 15° C | 55% | 1019 hPa | 0 mm | 0 m/s | 0 W/m² | - |
| 1777753663 | 15° C | 54% | 1019 hPa | 0 mm | 0 m/s | 0 W/m² | - |
| 1777753363 | 15° C | 57% | 1019.2 hPa | 0 mm | 0 m/s | 0 W/m² | - |
| 1777753063 | 15.56° C | 59% | 1019 hPa | 0 mm | 0 m/s | 0 W/m² | - |
| 1777752763 | 15.56° C | 60% | 1019.1 hPa | 0 mm | 0 m/s | 0 W/m² | - |
| 1777752463 | 15.56° C | 58% | 1019.2 hPa | 0 mm | 0 m/s | 0 W/m² | - |
| 1777752163 | 15.56° C | 55% | 1019.3 hPa | 0 mm | 0 m/s | 0 W/m² | - |
| 1777751863 | 15.56° C | 51% | 1019.2 hPa | 0 mm | 0 m/s | 0 W/m² | - |
| 1777751563 | 15.56° C | 53% | 1019.2 hPa | 0 mm | 0 m/s | 0 W/m² | - |
| 1777751263 | 15.56° C | 53% | 1019.1 hPa | 0 mm | 0 m/s | 0 W/m² | - |
| 1777750963 | 15.56° C | 54% | 1019.2 hPa | 0 mm | 0 m/s | 0 W/m² | - |
| 1777750663 | 15.56° C | 56% | 1019.1 hPa | 0 mm | 0 m/s | 0 W/m² | - |
| 1777750363 | 15.56° C | 59% | 1019.2 hPa | 0 mm | 0 m/s | 0 W/m² | - |
| 1777750063 | 16.11° C | 58% | 1019 hPa | 0 mm | 0 m/s | 0 W/m² | - |
| 1777749763 | 16.11° C | 57% | 1019.2 hPa | 0 mm | 0 m/s | 0 W/m² | - |
* Rain latest hour (hover to see other rain measurements)
** Current wind speed in m/s (hover to see current wind gust speed)